Location: Zagreb
(45.8150°N, 15.9819°E)
Time: 14:29:43
(UTC+02:00)

STARLINK-1758 - Pass Details

Date: 20 September 2020
Orbit: 378 x 380 km, 53.0° (Epoch: 20 October)

Event Time Altitude Azimuth Distance (km) Brightness Sun altitude
Exits shadow 04:15:51 25° 35° (NE) 825 5.1 -24.9°
Drops below altitude 10° 04:17:25 10° 51° (NE) 1,404 6.7 -24.7°
Sets 04:19:32 0° 58° (ENE) 2,260 8.2 -24.3°
